date,ESG,bench
21/04/2010,100,100
22/04/2010,100.6992937,100.1481127
23/04/2010,101.4993416,100.2616362
26/04/2010,100.8868361,100.8026465
27/04/2010,97.44722876,98.72995601
28/04/2010,98.81489166,98.90112814
29/04/2010,100.1685886,99.77472683
30/04/2010,97.42428475,98.59958138
03/05/2010,99.64885679,99.8412445
04/05/2010,98.05175372,98.35834398
05/05/2010,98.79494035,98.54281964
06/05/2010,96.8047963,96.97743721
07/05/2010,95.612705,95.2222577
10/05/2010,98.60141255,98.42486164
11/05/2010,99.48824867,98.86299134
12/05/2010,101.369658,100.1587555
13/05/2010,101.369658,100.544558
14/05/2010,99.85834564,99.14857386
17/05/2010,100.7012889,99.19469278
18/05/2010,98.81289653,98.53661132
19/05/2010,98.81888193,97.41024549
20/05/2010,94.29691553,94.59521782
21/05/2010,94.23805914,93.79611892
24/05/2010,94.23805914,94.32559955
25/05/2010,95.81720602,93.97882077
26/05/2010,96.26910339,94.5854619
27/05/2010,100.075815,97.08031787
28/05/2010,98.09764175,96.17301689
31/05/2010,98.58944176,96.60937278
01/06/2010,95.7004908,95.56282815
02/06/2010,99.60695902,97.14417483
03/06/2010,100.2424085,98.18273734
04/06/2010,97.76345716,96.76191997
07/06/2010,97.16890786,95.88743437
08/06/2010,98.01185108,96.12335036
09/06/2010,96.66912733,95.70561941
10/06/2010,99.55907585,97.58673904
11/06/2010,100.5426759,98.18628494
14/06/2010,99.01440485,97.67365546
15/06/2010,101.5891225,98.95966369
16/06/2010,101.1132836,99.14236555
17/06/2010,100.9945732,98.98538385
18/06/2010,100.8868361,98.97917554
21/06/2010,100.5586369,99.47140627
22/06/2010,99.55408803,98.89758053
23/06/2010,99.49523163,98.40357599
24/06/2010,96.78185228,96.59606925
25/06/2010,98.09265392,96.52955158
28/06/2010,97.19185188,96.49407549
29/06/2010,94.28993256,94.60940826
30/06/2010,92.88635729,93.46086987
01/07/2010,90.64682175,91.45913155
02/07/2010,89.23626352,90.44894991
05/07/2010,89.7170903,90.70260394
06/07/2010,89.11555804,91.42276855
07/07/2010,92.66290252,93.29767986
08/07/2010,93.22752484,94.09323116
09/07/2010,94.67399545,95.01915709
12/07/2010,94.7927058,95.382787
13/07/2010,95.86309405,96.27234994
14/07/2010,95.86309405,96.17035618
15/07/2010,93.75723235,94.95086562
16/07/2010,90.02533817,92.55090819
19/07/2010,90.63983879,92.39215269
20/07/2010,92.61801205,93.3500071
21/07/2010,91.3221739,93.39701291
22/07/2010,92.89633295,94.60408685
23/07/2010,94.27995691,95.89541649
26/07/2010,94.77674474,96.06658862
27/07/2010,94.31287658,95.80672627
28/07/2010,92.97314552,95.4599475
29/07/2010,92.8245082,94.86927061
30/07/2010,93.08587048,94.99698453
02/08/2010,94.27496908,96.14907053
03/08/2010,93.33326683,95.95661274
04/08/2010,94.61314393,96.51536115
05/08/2010,94.55229241,96.47633745
06/08/2010,93.05394837,95.42801902
09/08/2010,94.21511512,96.26082021
10/08/2010,94.5552851,96.34418902
11/08/2010,92.38258649,94.99787143
12/08/2010,92.19803679,94.83290762
13/08/2010,92.70879055,95.23999574
16/08/2010,92.09029967,94.85685398
17/08/2010,92.88934999,95.76858947
18/08/2010,93.11280476,95.97523769
19/08/2010,90.89521567,94.79477082
20/08/2010,91.28027613,95.00407975
23/08/2010,91.1346315,95.18057329
24/08/2010,89.24524161,93.75443451
25/08/2010,90.14704122,93.72250603
26/08/2010,88.44220103,93.20721584
27/08/2010,90.81341527,94.39389102
30/08/2010,89.21232193,94.15886193
31/08/2010,89.1195483,93.74201788
01/09/2010,91.8139739,95.59209593
02/09/2010,92.82351063,96.19252874
03/09/2010,94.70492,96.99428835
06/09/2010,94.57623399,97.28519228
07/09/2010,93.54774351,97.36856109
08/09/2010,94.02757272,97.67276855
09/09/2010,94.90243805,98.43106996
10/09/2010,95.22066159,98.7255215
13/09/2010,96.24715694,98.96764581
14/09/2010,95.15182954,98.46477224
15/09/2010,94.94433582,98.15613027
16/09/2010,94.39966482,97.44306088
17/09/2010,94.4674993,97.77830992
20/09/2010,96.1603687,98.79824748
21/09/2010,95.38027214,98.26344544
22/09/2010,92.19604166,96.31403434
23/09/2010,91.86185707,96.28387967
24/09/2010,93.43102829,96.87721726
27/09/2010,92.82251307,96.71846176
28/09/2010,93.17365628,96.54817653
29/09/2010,92.98810901,96.16503477
30/09/2010,92.53920434,95.40762026
01/10/2010,92.29180799,95.15662693
04/10/2010,91.62543394,94.89676458
05/10/2010,92.6868441,95.7020718
06/10/2010,92.0454092,95.87856535
07/10/2010,91.61246558,95.60983397
08/10/2010,92.43545748,95.93621399
11/10/2010,93.01404573,96.2572726
12/10/2010,93.98467739,96.46214701
13/10/2010,93.76321775,96.72644388
14/10/2010,92.25689318,96.18986803
15/10/2010,92.64993416,96.48786718
18/10/2010,93.84202546,97.14683553
19/10/2010,92.94022585,96.87366965
20/10/2010,92.98611388,96.66968213
21/10/2010,92.63098041,96.68209877
22/10/2010,93.38913052,97.06701433
25/10/2010,93.23949563,97.22488293
26/10/2010,93.91484777,97.52731659
27/10/2010,94.50640437,97.37654321
28/10/2010,93.4130721,97.12288917
29/10/2010,93.1846295,97.20537108
01/11/2010,93.1846295,97.36856109
02/11/2010,92.74071266,97.25681141
03/11/2010,93.2315151,97.34904924
04/11/2010,94.31187902,98.21289201
05/11/2010,96.50053869,99.66652476
08/11/2010,97.17489326,100.3698382
09/11/2010,95.17178085,100.0886902
10/11/2010,97.18387135,100.9924436
11/11/2010,97.18387135,101.0243721
12/11/2010,95.35034516,99.85100043
15/11/2010,96.11248554,100.5631829
16/11/2010,94.52136786,99.01642543
17/11/2010,94.6989346,99.29757344
18/11/2010,95.85910379,100.4478856
19/11/2010,95.62667092,100.1108628
22/11/2010,95.77730338,100.1853626
23/11/2010,95.19272974,99.78536966
24/11/2010,97.06516101,101.0208245
25/11/2010,97.22177886,101.3268057
26/11/2010,97.45321416,101.4199305
29/11/2010,98.51961215,101.6159359
30/11/2010,98.07370017,101.5467575
01/12/2010,100.1725789,103.166241
02/12/2010,101.4923586,104.0770895
03/12/2010,99.97206815,103.2309848
06/12/2010,100.9486852,103.7782035
07/12/2010,101.0634053,103.7107989
08/12/2010,103.0595347,104.508124
09/12/2010,104.5638642,105.2025685
10/12/2010,104.8451778,105.2965801
13/12/2010,103.313914,104.7245282
14/12/2010,103.2001915,104.9542358
15/12/2010,102.8171262,104.7192068
16/12/2010,104.7743506,105.8216262
17/12/2010,105.3260045,105.9954591
20/12/2010,106.3175851,106.5639634
21/12/2010,107.3740074,107.2708245
22/12/2010,108.6878018,107.782567
23/12/2010,108.4404054,108.0087271
24/12/2010,107.9645665,107.6637222
27/12/2010,107.813934,107.2859018
28/12/2010,107.873788,107.665496
29/12/2010,107.8219145,107.9395487
30/12/2010,106.3195802,106.5604158
31/12/2010,105.3589242,105.7790549
03/01/2011,107.4877299,106.857528
04/01/2011,107.6144208,107.3275862
05/01/2011,109.599577,108.3971903
06/01/2011,110.5522525,109.1918547
07/01/2011,111.0410598,109.4455087
10/01/2011,110.9642472,109.3151341
11/01/2011,111.4341008,109.9386264
12/01/2011,111.6894777,110.2392862
13/01/2011,109.3511831,108.5559458
14/01/2011,110.2878975,108.6375408
17/01/2011,110.8186026,109.116468
18/01/2011,110.2021069,109.0029445
19/01/2011,107.6872431,107.583014
20/01/2011,108.4433981,107.0978785
21/01/2011,107.836878,106.3475592
24/01/2011,107.1076573,106.4282673
25/01/2011,107.3301145,106.3431247
26/01/2011,107.75408,106.8087484
27/01/2011,108.3945174,106.7324748
28/01/2011,106.8373169,106.0202923
31/01/2011,106.8662464,105.8455726
01/02/2011,108.7356849,107.0012062
02/02/2011,108.0264155,107.0890095
03/02/2011,109.8778979,108.2623812
04/02/2011,111.3133953,109.0189088
07/02/2011,112.0166793,109.7452817
08/02/2011,111.504928,109.3674613
09/02/2011,110.6719604,108.7129275
10/02/2011,111.4909621,109.1971761
11/02/2011,112.4017398,109.8632397
14/02/2011,113.3115199,110.93107
15/02/2011,112.6890387,110.4601249
16/02/2011,113.8103029,111.0720874
17/02/2011,114.2153146,111.1998013
18/02/2011,113.911057,110.9683199
21/02/2011,113.6407167,110.3359586
22/02/2011,110.7198436,108.5231304
23/02/2011,109.3112805,107.3346814
24/02/2011,108.6598699,106.9116291
25/02/2011,110.3667052,108.4078331
28/02/2011,110.3836639,108.7421953
01/03/2011,108.2937632,107.747091
02/03/2011,107.8458561,107.1333546
03/03/2011,109.6624237,107.8180431
04/03/2011,108.2787997,107.1466582
07/03/2011,107.2303579,106.2127501
08/03/2011,109.576633,107.2743721
09/03/2011,109.2643949,107.0162835
10/03/2011,107.806951,105.8641975
11/03/2011,108.5800646,105.6912516
14/03/2011,106.7166115,103.5733291
15/03/2011,105.7130601,101.2815737
16/03/2011,103.9902638,100.7015397
17/03/2011,104.5469056,101.5370016
18/03/2011,104.6027692,101.2824606
21/03/2011,105.8008459,102.5454094
22/03/2011,105.0746179,102.6367603
23/03/2011,106.0252983,103.3285441
24/03/2011,106.460237,103.7515964
25/03/2011,107.4498224,104.3103448
28/03/2011,107.4927178,104.2580176
29/03/2011,108.540162,104.8149922
30/03/2011,109.613543,105.5901447
31/03/2011,108.5880452,104.7945934
01/04/2011,109.6444675,105.651341
04/04/2011,108.9830813,105.3409252
05/04/2011,109.2614022,105.3985739
06/04/2011,108.887315,104.7874982
07/04/2011,109.054906,104.9223074
08/04/2011,107.4837397,104.3600114
11/04/2011,107.3999441,104.0212147
12/04/2011,106.5230837,102.5808855
13/04/2011,106.2896532,102.9117
14/04/2011,106.2617214,103.0633603
15/04/2011,106.9121344,103.4793174
18/04/2011,107.027852,103.3986093
19/04/2011,106.6936675,103.2096992
20/04/2011,106.4722078,103.8012629
21/04/2011,107.0547863,104.2198808
22/04/2011,107.0547863,104.2252022
25/04/2011,107.0547863,104.0309706
26/04/2011,107.1076573,104.272208
27/04/2011,107.7121823,104.5373918
28/04/2011,107.2632776,104.2881723
29/04/2011,107.156538,104.4965943
02/05/2011,106.9450541,104.3688804
03/05/2011,106.5440326,104.072655
04/05/2011,105.4706516,102.9409678
05/05/2011,106.5031324,103.6522634
06/05/2011,107.6403575,104.7396055
09/05/2011,109.5556841,106.0894707
10/05/2011,109.9646862,106.4114162
11/05/2011,109.2025458,106.2056549
12/05/2011,110.3846614,106.4841422
13/05/2011,109.2933243,105.8038882
16/05/2011,108.804517,105.089045
17/05/2011,109.0539085,105.0305094
18/05/2011,109.4080444,105.4322761
19/05/2011,109.4908423,105.7231801
20/05/2011,109.061889,105.7639776
23/05/2011,108.5222058,104.9498013
24/05/2011,107.6533259,104.5098978
25/05/2011,108.0523523,105.1227473
26/05/2011,108.2249312,105.451788
27/05/2011,108.0573401,105.1812828
30/05/2011,107.972547,105.0934795
31/05/2011,108.1670723,105.6034483
01/06/2011,104.7743506,103.800376
02/06/2011,104.7743506,102.9134738
03/06/2011,102.4440366,101.6185966
06/06/2011,100.5536491,100.5755995
07/06/2011,99.90423367,100.1951185
08/06/2011,99.52815131,99.94944657
09/06/2011,100.9925781,101.1095147
10/06/2011,100.6524081,100.6421172
13/06/2011,100.6524081,100.5392366
14/06/2011,101.5990982,101.1769193
15/06/2011,100.9446949,100.7875692
16/06/2011,101.8784167,101.0305804
17/06/2011,101.3357408,100.4124095
20/06/2011,101.634013,100.4638499
21/06/2011,103.0276126,101.6212573
22/06/2011,101.9312877,101.0217114
23/06/2011,103.4974662,101.6363346
24/06/2011,101.7517258,101.0367887
27/06/2011,101.8035992,100.7095218
28/06/2011,102.5138662,101.3010856
29/06/2011,103.9174414,102.4451894
30/06/2011,104.2975141,103.0544913
01/07/2011,106.1380232,104.1533631
04/07/2011,105.9804078,104.2828509
05/07/2011,105.6083157,104.4566837
06/07/2011,105.9305295,105.3152051
07/07/2011,107.0218666,105.6885909
08/07/2011,106.2437652,105.7622038
11/07/2011,104.8870755,105.5209664
12/07/2011,104.3224532,104.9506882
13/07/2011,103.4984637,104.689939
14/07/2011,103.4984637,103.9804172
15/07/2011,102.5128686,104.4016958
18/07/2011,101.2589282,103.8411735
19/07/2011,101.9312877,104.1764226
20/07/2011,102.2884163,104.7396055
21/07/2011,103.2291209,104.9400454
22/07/2011,103.3338654,105.4349369
25/07/2011,102.617613,105.0420392
26/07/2011,102.3343043,104.0753157
27/07/2011,100.0907785,102.9959557
28/07/2011,100.2683452,103.1068185
29/07/2011,99.51717809,102.0904286
01/08/2011,99.98104625,102.612814
02/08/2011,96.66314193,100.2953384
03/08/2011,97.01029488,99.29313892
04/08/2011,92.01049439,95.93355329
05/08/2011,90.84932764,94.55708103
08/08/2011,81.9031563,89.75007095
09/08/2011,87.55636248,92.0764155
10/08/2011,82.25429951,89.61526181
11/08/2011,87.40173975,91.93185043
12/08/2011,87.12740912,93.40942954
15/08/2011,87.12740912,93.80410104
16/08/2011,87.53142333,93.47683411
17/08/2011,87.11144807,93.44047112
18/08/2011,82.65831371,90.21214701
19/08/2011,80.20031124,88.31417625
22/08/2011,79.91101712,88.51905066
23/08/2011,82.98850804,90.53143181
24/08/2011,84.83400503,91.27199518
25/08/2011,83.43541758,90.54562225
26/08/2011,85.04449144,91.16024549
29/08/2011,88.52898927,92.23339719
30/08/2011,88.69857548,93.30122747
31/08/2011,89.85575197,94.71317582
01/09/2011,88.25066837,95.0635022
02/09/2011,84.79709509,93.13715056
05/09/2011,85.28689996,92.05779055
06/09/2011,83.9621324,91.63651199
07/09/2011,88.5339771,94.17393926
08/09/2011,86.73736084,94.08436214
09/09/2011,85.74378516,93.21431105
12/09/2011,87.08152109,92.93582375
13/09/2011,87.6202067,93.4697389
14/09/2011,88.92801564,94.37703988
15/09/2011,90.16998524,95.15574003
16/09/2011,90.45528909,96.14108841
19/09/2011,88.99884282,95.75173833
20/09/2011,87.3418858,95.51316163
21/09/2011,83.15410399,93.61873847
22/09/2011,80.76593113,91.18507876
23/09/2011,81.29763377,91.29505463
26/09/2011,85.0075815,92.82939549
27/09/2011,85.06344519,94.25730807
28/09/2011,82.34807071,93.12207322
29/09/2011,84.0997965,93.39967362
30/09/2011,81.92610032,92.85955016
03/10/2011,78.45556841,91.37664964
04/10/2011,82.25429951,91.32609621
05/10/2011,85.23801923,92.96509153
06/10/2011,87.69302901,94.64754505
07/10/2011,84.2374606,94.22094508
10/10/2011,87.43864969,95.60806017
11/10/2011,88.17784606,95.96282106
12/10/2011,89.29911017,96.21204058
13/10/2011,88.77838075,96.31492124
14/10/2011,89.88667651,96.60671208
17/10/2011,86.80619289,96.12778487
18/10/2011,91.41394996,97.16013907
19/10/2011,88.01025498,96.12601107
20/10/2011,90.26076374,96.19430254
21/10/2011,91.44287937,97.04129417
24/10/2011,94.43956746,98.5685398
25/10/2011,89.68915845,97.11402015
26/10/2011,92.90531104,98.09138641
27/10/2011,97.32552572,99.8811551
28/10/2011,97.4871314,99.91751809
31/10/2011,94.04153865,98.56410529
01/11/2011,94.04153865,97.0146871
02/11/2011,93.70236623,97.35170995
03/11/2011,96.08255856,99.2053356
04/11/2011,96.27409122,98.78760465
07/11/2011,96.83372571,99.03061586
08/11/2011,97.95798252,99.52816801
09/11/2011,93.82805953,98.23861218
10/11/2011,94.58521208,98.11888037
11/11/2011,94.58521208,99.24702001
14/11/2011,95.08199992,99.09003831
15/11/2011,96.21722996,99.62306655
16/11/2011,93.73728103,98.58539095
17/11/2011,91.46283069,97.34195402
18/11/2011,91.7321735,96.84706258
21/11/2011,89.78991261,95.02802611
22/11/2011,88.46913531,94.52515255
23/11/2011,86.48697179,93.48747694
24/11/2011,86.61066997,93.432489
25/11/2011,86.61765293,93.64179793
28/11/2011,89.3978692,95.99741025
29/11/2011,89.10458481,96.75393785
30/11/2011,93.53876541,99.63282248
01/12/2011,93.3721719,99.55832269
02/12/2011,94.40465265,100.1215056
05/12/2011,96.46163361,100.8283667
06/12/2011,96.79182794,100.9951043
07/12/2011,97.59885878,101.2558536
08/12/2011,94.15526116,99.92638712
09/12/2011,96.08156099,100.6057542
12/12/2011,94.6490563,100.1711721
13/12/2011,93.38713539,100.345005
14/12/2011,93.12776825,99.62484036
15/12/2011,92.76166155,99.60444161
16/12/2011,92.85044491,99.54235845
19/12/2011,90.4024181,98.79736058
20/12/2011,93.54375324,100.5835817
21/12/2011,94.54530944,101.0891159
22/12/2011,96.58034396,101.7738045
23/12/2011,97.56992937,102.7405279
26/12/2011,97.56992937,102.7928551
27/12/2011,96.35289893,102.6474032
28/12/2011,95.26156179,102.2518448
29/12/2011,97.00730218,103.3498297
30/12/2011,96.31898168,103.2593657
02/01/2012,96.30701089,103.5626862
03/01/2012,98.80890627,104.7404924
04/01/2012,99.75759148,105.6992337
05/01/2012,101.4813854,106.0743934
06/01/2012,101.6529668,106.2695118
09/01/2012,101.9153266,106.1480062
10/01/2012,103.9543514,107.1537534
11/01/2012,105.9345198,107.6406627
12/01/2012,105.6202865,106.984355
13/01/2012,105.2561749,107.5218178
16/01/2012,105.1953234,107.6034128
17/01/2012,104.5578788,107.873918
18/01/2012,106.7235944,108.1479708
19/01/2012,106.8752245,108.4645949
20/01/2012,107.2642752,108.4699163
23/01/2012,106.5939109,108.0246914
24/01/2012,107.4987032,108.0956435
25/01/2012,107.5186545,108.7138144
26/01/2012,104.8820877,107.8269122
27/01/2012,106.0661985,107.6388889
30/01/2012,105.0895814,107.1714914
31/01/2012,105.2621603,107.537782
01/02/2012,106.7565141,108.1053995
02/02/2012,107.8348829,108.5222435
03/02/2012,111.3503053,110.1372925
06/02/2012,111.7672878,110.4840712
07/02/2012,110.431547,109.5288775
08/02/2012,111.5418379,109.6982759
09/02/2012,111.3443199,109.5457287
10/02/2012,110.4594789,109.2468426
13/02/2012,110.8215953,109.8499361
14/02/2012,110.937313,110.114233
15/02/2012,111.4700132,110.7758621
16/02/2012,113.6925901,111.4711934
17/02/2012,113.1808388,111.1315099
20/02/2012,112.313954,110.9913793
21/02/2012,112.5553649,110.8627785
22/02/2012,111.4909621,110.5851781
23/02/2012,111.4171422,110.4441606
24/02/2012,109.6534456,109.7532638
27/02/2012,110.2100874,110.1408401
28/02/2012,110.2400144,110.332411
29/02/2012,109.4768764,110.3758692
01/03/2012,111.0630063,111.2459202
02/03/2012,111.2266071,111.8028948
05/03/2012,110.3357807,111.0241947
06/03/2012,108.3456366,109.7142401
07/03/2012,109.4838594,110.1638995
08/03/2012,109.6963409,110.6002554
09/03/2012,111.5178963,112.0255073
12/03/2012,110.6370456,111.6609905
13/03/2012,113.7953394,113.5891159
14/03/2012,114.2681856,114.0769122
15/03/2012,115.7425881,114.4529587
16/03/2012,115.0941702,114.1425429
19/03/2012,114.9684769,113.9429899
20/03/2012,114.6332948,113.3594083
21/03/2012,114.3599617,113.2591883
22/03/2012,112.6640996,112.5301547
23/03/2012,113.2257292,112.2889173
26/03/2012,114.3310323,113.0525401
27/03/2012,113.4481864,113.0010998
28/03/2012,112.9773353,112.5665177
29/03/2012,112.0865089,112.0654179
30/03/2012,111.8989665,112.2977863
02/04/2012,112.8386736,113.5021995
03/04/2012,111.2036631,112.5585355
04/04/2012,111.3054148,112.2862566
05/04/2012,111.0440525,112.6312615
06/04/2012,111.0440525,112.5390237
09/04/2012,111.0440525,111.7000142
10/04/2012,107.3400902,109.7834185
11/04/2012,108.0294082,110.1106854
12/04/2012,110.0893819,111.1909323
13/04/2012,108.6429113,110.5967078
16/04/2012,108.2059774,110.6605648
17/04/2012,109.530745,111.7496807
18/04/2012,108.5441523,111.6388179
19/04/2012,108.2099677,110.9372783
20/04/2012,107.2323531,110.7519157
23/04/2012,107.1555405,109.9643465
24/04/2012,106.8852001,109.9696679
25/04/2012,108.2279239,111.3470271
26/04/2012,108.4384103,111.6583298
27/04/2012,107.6174135,111.8800553
30/04/2012,107.2642752,111.7062225
01/05/2012,107.2642752,112.0565489
02/05/2012,107.5555644,112.2197389
03/05/2012,105.4507003,111.6139847
04/05/2012,103.3398508,110.2783099
07/05/2012,103.6720402,110.4876188
08/05/2012,103.6720402,110.0486022
09/05/2012,103.1124057,109.7798709
10/05/2012,103.0465664,109.9581382
11/05/2012,102.284426,109.8774301
14/05/2012,101.6350106,109.1918547
15/05/2012,100.2434061,108.8140343
16/05/2012,99.10119309,108.2951965
17/05/2012,99.10119309,107.4047467
18/05/2012,96.08954152,106.1329289
21/05/2012,98.01783648,106.9400099
22/05/2012,97.80535493,107.7870016
23/05/2012,99.02238538,108.146197
24/05/2012,99.06727585,108.5426423
25/05/2012,99.97705598,108.9027246
28/05/2012,99.97705598,108.8220165
29/05/2012,101.5212881,109.8907336
30/05/2012,100.3521408,109.333759
31/05/2012,99.96907546,109.2530509
01/06/2012,96.84769163,106.9834681
04/06/2012,95.43015043,105.6868171
05/06/2012,97.19983241,106.6136299
06/06/2012,99.80048681,108.6845466
07/06/2012,99.04333426,108.7776713
08/06/2012,100.4947927,109.4508301
11/06/2012,98.14951518,108.6339932
12/06/2012,100.475839,109.8268767
13/06/2012,98.22133993,108.6650348
14/06/2012,98.91863852,109.0038314
15/06/2012,100.356131,109.896942
18/06/2012,100.045888,110.5993685
19/06/2012,101.4494633,111.1350575
20/06/2012,101.7267866,111.1465872
21/06/2012,99.23985475,109.9448347
22/06/2012,100.937712,110.4539166
25/06/2012,98.99046327,109.3541578
26/06/2012,99.88029209,109.6344189
27/06/2012,101.7726747,110.8264155
28/06/2012,101.9781733,110.939939
29/06/2012,102.3402897,111.8711863
02/07/2012,102.9238658,113.2583014
03/07/2012,104.3434021,114.06893
04/07/2012,104.9509198,114.8378743
05/07/2012,105.0476837,115.3132539
06/07/2012,104.4232074,114.8050589
09/07/2012,103.5563226,114.386441
10/07/2012,102.6445473,114.2986377
11/07/2012,103.3378556,114.3624947
12/07/2012,102.3961534,113.9084007
13/07/2012,103.5942301,115.0542784
16/07/2012,103.4844978,115.0737903
17/07/2012,104.5469056,115.6830921
18/07/2012,104.8062727,116.1389598
19/07/2012,104.7065161,116.9974812
20/07/2012,103.7259088,116.3411735
23/07/2012,102.9936954,114.9957429
24/07/2012,101.1432106,114.4316731
25/07/2012,100.363114,113.9678232
26/07/2012,101.0165197,114.7713566
27/07/2012,103.0794861,116.1895133
30/07/2012,104.0511153,117.7673123
31/07/2012,103.5373688,116.7589045
01/08/2012,102.9996808,116.7154463
02/08/2012,104.0162005,116.7961544
03/08/2012,105.3738877,117.3939265
06/08/2012,106.2357847,117.4684263
07/08/2012,108.2179482,118.1956861
08/08/2012,109.2833486,118.8351426
09/08/2012,110.1542237,119.4781467
10/08/2012,110.4225689,119.484355
13/08/2012,109.8559515,118.9389102
14/08/2012,109.6684091,119.3530935
15/08/2012,109.6684091,119.7176103
16/08/2012,110.9552691,119.9437704
17/08/2012,111.7223974,120.8351071
20/08/2012,111.920913,120.3810132
21/08/2012,110.8824468,119.3885696
22/08/2012,110.4395276,118.9992195
23/08/2012,108.2648338,117.6750745
24/08/2012,109.2284825,118.3571023
27/08/2012,108.8354415,118.4342628
28/08/2012,108.3526196,117.7593302
29/08/2012,108.8913052,118.0502341
30/08/2012,107.708192,117.3070101
31/08/2012,107.5156618,116.9699872
03/09/2012,107.6543235,117.3291826
04/09/2012,107.2223774,116.9691003
05/09/2012,106.981964,116.482191
06/09/2012,109.4269981,118.4209593
07/09/2012,109.7571925,118.196573
10/09/2012,109.3511831,117.8223003
11/09/2012,110.0405012,117.7593302
12/09/2012,109.976657,117.8347169
13/09/2012,111.5827381,118.813857
14/09/2012,111.3702566,118.2320491
17/09/2012,109.7911097,117.8648716
18/09/2012,109.9976058,118.1477934
19/09/2012,110.3497466,118.5194054
20/09/2012,110.7727146,118.8661842
21/09/2012,109.7192849,118.8448985
24/09/2012,109.8290172,118.9779339
25/09/2012,107.2732533,118.1504541
26/09/2012,107.3460756,117.7868242
27/09/2012,108.7326922,118.5619767
28/09/2012,107.9226687,117.7540088
01/10/2012,107.8678026,118.0520079
02/10/2012,107.949603,117.842699
03/10/2012,107.7002115,118.1052221
04/10/2012,108.5301863,118.0626508
05/10/2012,107.8488488,118.0768412
08/10/2012,108.6289454,118.1699659
09/10/2012,108.6309405,117.6839435
10/10/2012,107.3121583,116.8990351
11/10/2012,107.8787758,116.8608983
12/10/2012,106.8981685,116.3961615
15/10/2012,107.9895056,117.2786292
16/10/2012,109.1915726,117.9730736
17/10/2012,109.4988229,118.005889
18/10/2012,109.8529588,118.2595431
19/10/2012,108.358605,117.2830637
22/10/2012,108.3566099,116.8059103
23/10/2012,107.2054188,115.9065915
24/10/2012,106.7485336,115.7646871
25/10/2012,107.473764,116.2081382
26/10/2012,106.8891904,116.2329715
29/10/2012,107.0527912,116.1806442
30/10/2012,106.5709668,115.9935079
31/10/2012,107.0009178,116.119448
01/11/2012,107.0009178,117.3540159
02/11/2012,108.1890188,117.5296225
05/11/2012,109.4050517,117.8870441
06/11/2012,110.9093811,118.4440187
07/11/2012,107.8588245,116.9043565
08/11/2012,106.5949084,116.0476089
09/11/2012,106.8622561,116.173549
12/11/2012,106.9021587,116.0023769
13/11/2012,106.1001157,115.7921811